Powrót do katalogu

OPS 4682 DEB

AktywnyPO
NORAD 38374·DEBRIS·🇺🇸 United States

Wystrzelony Apr 3, 1965 z Vandenberg Space Force Base

Loading…

Następne Przeloty (najbliższe 24 godziny)

TLE

ŚwieżeSource: Space-Track

Epoka: Sep 14, 2026, 02:00 UTC

1 38374U 65027CB  26257.08342918  .00000857  00000-0  27681-2 0  9998
2 38374  90.2552  16.0773 0021836 344.7259  15.3202 13.01370153624197

Śledź OPS 4682 DEB w czasie rzeczywistym z AllMySat

Download on the App Store